Regional Weather Roundup
Issued by NWS Portland, ME

Current Version | Previous Version | Text Only | Print | Product List | Glossary On
Versions: 1 2 3 4 5 6 7 8 9 10 11 12 13 14 15 16 17 18 19 20 21 22 23 24 25 26 27 28 29 30 31 32 33 34 35 36 37 38 39 40 41 42 43 44 45 46 47 48 49 50
000
ASUS41 KGYX 210810
RWRGYX
WEATHER ROUNDUP FOR MAINE AND NEW HAMPSHIRE
NATIONAL WEATHER SERVICE GRAY ME
300 AM EST TUE FEB 21 2017

MEZ002-005-006-010-012-015-018-020-021-024-026-027-029-210900-
MAINE

CITY           SKY/WX    TMP DP  RH WIND       PRES   REMARKS
PORTLAND       CLEAR     25  14  63 NW3       30.37S
SANFORD        CLOUDY    16  13  88 CALM      30.37R
BAR HARBOR     CLEAR     24   9  52 CALM      30.34F
WISCASSET      CLEAR     22  14  71 CALM      30.38S
ROCKLAND       CLEAR     28  12  50 VRB7      30.36S
FRYEBURG       CLOUDY    14  10  84 CALM      30.35R
LEWISTONAUBURN CLOUDY    17  13  84 CALM      30.35F
AUGUSTA        CLOUDY    25  10  53 N5        30.35S
WATERVILLE     CLOUDY    24  13  62 N8        30.33S
BANGOR         PTCLDY    20   9  62 N6        30.35F
GREENVILLE       N/A     15   9  76 VRB5      30.26S
MILLINOCKET    PTCLDY    14   6  70 CALM      30.34F
HOULTON        CLOUDY     5   1  83 CALM      30.31F
PRESQUE ISLE   CLOUDY    -3  -6  87 CALM      30.33F
FRENCHVILLE    CLOUDY    11   6  81 NW5       30.27F
CARIBOU        CLOUDY     9   4  80 CALM      30.30F
$$

NHZ002-005-008-009-011-012-014-210900-
NEW HAMPSHIRE

CITY           SKY/WX    TMP DP  RH WIND       PRES   REMARKS
PORTSMOUTH     CLEAR     23  14  70 W5        30.36R
ROCHESTER      CLOUDY    26  11  52 NW7       30.35R
NASHUA         CLOUDY    20  14  77 NW6       30.39R
MANCHESTER     CLOUDY    26  13  57 N3        30.37R
CONCORD        CLOUDY    16  12  84 CALM      30.38R
LACONIA        CLOUDY    20  15  81 MISG      30.36
PLYMOUTH       FAIR      19  13  79 CALM      30.37S
BERLIN         CLOUDY     3  -2  79 CALM      30.33F
WHITEFIELD     CLOUDY     9   3  77 CALM      30.34S
JAFFREY        CLOUDY    14  10  84 CALM      30.34R
KEENE          CLOUDY    15  13  91 CALM      30.39R
LEBANON        CLOUDY    17  12  80 CALM      30.38S
MT WASHINGTON  CLEAR     25   5  42 NE22        N/A  WCI  10
$$

VTZ005-007-008-210900-
VERMONT

CITY           SKY/WX    TMP DP  RH WIND       PRES   REMARKS
ST JOHNSBURY     N/A     13   9  84 MISG      30.36F
MONTPELIER     CLOUDY    13  10  88 S3        30.39S
BURLINGTON     CLOUDY    20  15  81 CALM      30.38F
$$

MAZ007-012-024-CTZ003-RIZ002-NYZ038-NYZ072-210900-
SOUTHERN NEW ENGLAND AND NY

CITY           SKY/WX    TMP DP  RH WIND       PRES   REMARKS
BOSTON         CLEAR     31  15  52 N7        30.38R
WORCESTER      CLOUDY    29   9  43 N6        30.33R
NANTUCKET      CLEAR     34  28  79 N8        30.31F
PROVIDENCE     CLEAR     30  13  49 NW7       30.37R
HARTFORD       CLOUDY    26  12  55 N6        30.38S
ALBANY         CLOUDY    22  13  68 CALM      30.39F
NEW YORK CITY  PTCLDY    38  13  35 NE8       30.36F
$$

ANZ081-ANZ082-ANZ150-NHZ014-MEZ023>029-210900-
COASTAL MARINE OBSERVATIONS

STATION/POSITION TIME  TEMP    WIND        PRES    WAVE
                       AIR SEA DIR/SP/G            HT/PER
                 (UTC) (F)     (DEG/KT/KT) (MB)    (FT/S)
MOUNT DESERT ROC 0800   30                 1026.9R
MATINICUS ROCK   0800   31      30/ 21/ 23 1026.7F
ISLE OF SHOALS   0800   35      30/ 12/ 12 1027.8R
JEFFREYS LEDGE   0706      43                N/A     4/ 6
CASHES LEDGE BUO 0750   34 42              1027.0F   5/ 6
GEORGES BANK BUO 0750   39 42              1022.9R   6/ 8
$$

.............KEY..............
   WCI - WIND CHILL
   TC  - TEMPERATURE IN CELSIUS
   VSB - VISIBILITY IN MILES
   HX  - HEAT INDEX
   FAIR- INDICATES FEW OR NO CLOUDS BELOW 12,000 FT, WITH NO
         SIGNIFICANT WEATHER AND/OR OBSTRUCTIONS TO VISIBILITY.






USA.gov is the U.S. government's official web portal to all federal, state and local government web resources and services.